Showing default

TIANLIAN-2 04, 63361

Orbit data source: Space-Track

TIANLIAN-2 04, 63361 is a payload satellite owned by CAST (CN) in GEO that was launched on Wed, 26 Mar 2025 UTC via a CHANG ZHENG 3B launch vehicle from the Xichang Space Center, China (XSC). Payload-class satellites include a variety of spacecraft equipped with specific instruments for various scientific and technological missions. These include communications satellites like Starlink; space stations such as the ISS; scientific satellites like the Hubble; Earth observation satellites from companies like Planet Labs, Umbra, and HawkEye 360; GPS; miniature CubeSats for education and research; and military/defense satellites.

Not visible in the next 10 days
Identifier
63361, 2025-062A
Orbit
GEO
Country
Flag of CNCN / PRC
Related business
Manufacturer
CAST
Mission
Operational Civil Communications
Bus & Motor
DFH-4, FY-25
Mass
~5,000 kg wet, ~2,000 kg dry
Launch date (UTC)
2025-03-26 (1 year ago)
Launch vehicle
CHANG ZHENG 3B
Launch site
Xichang Space Center, China (XSC)
Object type
Payload
Rocket body
Debris
Shape & HBR
Box + 2 Pan + 1 Dish, 22.5 m
Radar Cross Section
40.604 m², Large (>1 m²)

Expand to show TLE details & history
Last TLE update: 11 hours ago

TLE from 11 hours ago
0 TIANLIAN-2 04
1 63361U 25062A   26171.40779872 -.00000140  00000-0  00000+0 0  9990
2 63361   4.3652 274.3937 0031555  10.4206 210.6702  1.00271994  4632
Epoch: 2026-06-20T09:47Z
TLE epoch observation values (Epoch: 2026-06-20T09:47:13.809Z)
Latitude
-2.84896°
Longitude
79.79297°
Altitude
35,901.246 km
Speed
3.066 km/s
True Right ascension
09h 00m 53s
True Declination
-2° 50' 46"
Sunlit
Object was in daylight at epoch
Visualization orbit readout
Latitude
Unknown
Longitude
Unknown
Altitude
Unknown
Speed
Unknown
Apparent Right ascension
Unknown
Apparent Declination
Unknown
Sunlit
N/A
Visualization observer readout
Local Sidereal Time
07:24:20
Azimuth
Unknown
Elevation
Unknown
Doppler factor
Unknown
Orbital elements
Apogee altitude
35,920.652 km
Perigee altitude
35,654.544 km
Semi-major axis
42,165.735 km
Eccentricity
0.00316
Inclination
4.3652°
RAAN
274.3937°
Arg. of periapsis
10.4206°
True anomaly
210.48638°
Mean anomaly
210.6702°
Eccentric anomaly
210.57823°
Mean motion
0.25067 °/min
Orbital period
1,436.15 mins
BSTAR
0
Loading maneuver chart data...
Computing Atmospheric mass density...
Loading historical data...
Loading historical data...
Loading historical data...
Loading historical data...
Loading historical data...
Loading historical data...
Loading historical data...
Other satellites on launch #62 in the year 2025 (2025-03-26 UTC)

Documentation

Showing up to 5 results
|